Location: Heilwood
(40.6210°N, 78.9150°W)
Time: 05:23:35
(UTC-05:00)

BREEZE-M DEB (TANK) - Visible Passes

Search period start: 26 January 2015 00:00
Search period end: 05 February 2015 00:00
Orbit: 315 x 15982 km, 49.5° (Epoch: 25 January)

Date Brightness Start Highest point End Pass type
(mag) Time Alt. Az. Time Alt. Az. Time Alt. Az.
26 Jan 5.2 03:56:17 57° S 03:58:24 66° SE 04:41:51 10° ENE visible
27 Jan 5.1 04:08:33 60° SSW 04:11:01 75° SE 04:59:45 10° ENE visible
28 Jan 5.1 04:20:47 59° SW 04:23:47 82° SE 05:18:31 10° ENE visible
29 Jan 5.1 04:32:59 55° SW 04:36:42 89° SE 05:38:20 10° ENE visible
30 Jan 5.2 04:45:11 49° WSW 04:49:44 85° NNW 05:59:23 10° ENE visible
31 Jan 5.3 04:57:20 43° WSW 05:02:56 80° NNW 06:21:47 10° ENE visible
01 Feb 5.5 05:09:28 38° W 05:16:15 76° NNW 06:45:26 10° E visible
02 Feb 5.6 05:21:34 33° W 05:29:42 74° NNW 07:09:53 10° E visible
03 Feb 5.8 05:33:40 28° W 05:43:17 72° N 07:34:26 10° E visible
04 Feb 7.0 00:55:18 13° E 00:55:18 13° E 00:59:34 10° ENE visible
04 Feb 5.9 05:45:43 24° W 05:56:59 71° N 07:58:16 10° E visible
